Location: ??????
(55.2000°N, 38.3000°E)
Time: 03:52:08
(UTC+00:00)

Cosmos 1980 - Visible Passes

Search period start: 19 February 2026 00:00
Search period end: 01 March 2026 00:00
Orbit: 837 x 846 km, 71.0° (Epoch: 18 February)

Date Brightness Start Highest point End Pass type
(mag) Time Alt. Az. Time Alt. Az. Time Alt. Az.
19 Feb 5.3 15:11:50 10° NW 15:17:06 40° WSW 15:22:19 10° S visible
22 Feb 6.7 03:57:35 10° SSE 04:01:48 22° ESE 04:06:02 10° NE visible
23 Feb 6.7 03:42:37 10° SSE 03:46:44 21° ESE 03:50:52 10° NE visible
24 Feb 6.7 03:27:41 10° SE 03:31:41 20° E 03:35:42 10° NE visible
25 Feb 6.6 03:12:45 10° SE 03:16:37 19° E 03:20:31 10° ENE visible
25 Feb 7.4 15:28:21 10° W 15:29:23 10° W 15:30:24 10° WSW visible
26 Feb 6.6 02:57:49 10° SE 03:01:35 18° E 03:05:21 10° ENE visible
27 Feb 6.6 02:42:54 10° SE 02:46:31 18° E 02:50:09 10° ENE visible
28 Feb 6.6 02:27:59 10° SE 02:31:28 17° E 02:34:58 10° ENE visible
